Location: Unspecified
(53.6186°N, 1.3184°W)
Time: 08:26:28
(UTC+01:00)

ISS - Pass Details

Date: 19 September 2017
Orbit: 401 x 407 km, 51.6° (Epoch: 23 September)

Event Time Altitude Azimuth Distance (km) Brightness Sun altitude
Exits shadow 04:05:32 12° 128° (SE) 1,362 -1.0 -22.8°
Drops below altitude 10° 04:05:44 11° 127° (SE) 1,437 -0.9 -22.8°
Sets 04:07:57 0° 120° (ESE) 2,328 0.3 -22.5°
